User: anonymous   Login
Location: Dentlein
(49.1477°N, 10.4231°E)
Time: 15:10:10
(UTC+00:00)
Language:

Nimbus 7 Rocket - Orbit

View from above orbital plane
View from above orbital plane
View from above satellite
View from above satellite

Ground track
Ground track

The orbit data is extracted from the following two-line orbital elements,

1 11081U 78098B   24201.75216421  .00000101  00000-0  12698-3 0  9991
2 11081  99.3756 123.9429 0028299 215.6186 144.3081 13.85912387151196
Epoch (UTC): 19 July 2024 18:03:06
Eccentricity: 0.0028299
inclination: 99.3756°
perigee height: 922 km
apogee height: 964 km
right ascension of ascending node: 123.9429°
argument of perigee: 215.6186°
revolutions per day: 13.85912387
mean anomaly at epoch: 144.3081°
orbit number at epoch: 15119

The dashed part of the orbit path shows where the satellite is in the earth's shadow,  

DLR